Temp
41 43 44 43 44 46 48 56 57 58 59 58 58 58 58 58 58 59 62 64 64 63 62 61 61 60 60 59 59 59 59 57 57 55 54 54 53 53 57 60 60 59 59
38 40 41 41 41 42 43 48 54 57 58 58 57 57 57 57 57 58 59 62 62 62 62 60 60 60 59 58 58 59 56 57 58 55 54 50 54 53 54 57 59 60 61
35 36 38 38 38 39 40 44 48 50 53 57 58 58 58 57 57 56 56 57 60 60 61 60 59 59 59 57 57 57 57 55 56 57 55 48 48 49 52 52 55 56 57
36 37 36 35 36 37 39 42 45 46 48 49 56 55 54 53 54 54 55 55 57 59 58 58 58 57 57 56 57 57 57 57 54 54 56 55 52 47 46 49 50 51 53
38 38 37 35 36 36 37 39 41 43 43 44 47 52 53 53 53 53 53 53 53 54 56 56 56 56 54 56 56 55 55 56 55 54 52 52 51 51 48 45 47 48 51
38 39 41 40 36 37 37 39 39 40 41 41 42 44 43 46 48 51 51 51 52 52 53 55 54 54 54 54 54 53 54 53 53 55 54 53 52 50 47 46 45 46 51
34 36 36 37 38 37 38 39 40 38 40 40 40 40 41 42 41 43 44 45 48 49 49 52 52 52 52 52 52 52 51 51 51 52 55 53 54 54 52 51 49 46 47
32 34 35 35 35 37 38 39 39 39 41 40 40 40 40 40 40 41 41 41 41 43 45 46 47 50 52 52 52 51 51 51 50 50 51 53 52 52 51 52 51 48 45
31 31 34 34 34 34 35 37 38 38 39 38 39 39 40 40 40 40 41 41 42 43 43 43 43 45 46 49 51 50 50 50 50 50 50 51 54 52 53 54 53 51 48
30 30 31 32 34 34 35 36 36 36 37 38 38 38 38 38 38 38 38 39 40 42 42 42 43 44 44 45 45 47 51 50 50 50 50 51 53 53 53 52 53 52 51
28 28 28 29 31 32 33 34 34 35 35 36 36 35 36 37 38 37 37 37 38 39 39 39 40 41 42 43 43 44 46 45 48 51 51 51 52 52 52 52 52 52 52
29 28 27 27 28 29 31 31 32 33 34 35 35 35 35 35 34 35 36 37 36 38 37 38 38 39 39 39 40 41 43 42 42 45 45 49 52 51 52 52 52 52 53
29 28 28 27 26 27 28 29 31 30 33 33 33 33 33 32 32 32 34 35 35 35 36 36 36 36 37 37 37 39 38 39 40 41 42 44 45 47 49 49 49 50 51
30 28 27 26 26 27 27 27 28 29 31 31 31 31 31 31 31 32 32 33 33 33 33 34 34 35 35 36 37 37 36 37 38 39 39 40 41 43 42 44 48 48 48
29 28 27 25 25 25 26 27 28 28 29 29 29 29 30 30 30 30 31 31 31 31 32 32 32 33 33 37 36 36 36 36 36 37 38 38 40 41 42 42 43 45 46
29 28 27 24 25 23 25 27 26 27 28 27 27 28 28 28 28 28 29 29 29 29 29 29 30 29 33 36 38 38 35 35 35 34 36 37 39 39 42 43 43 43 42
28 27 25 25 24 24 26 23 24 25 25 26 26 26 26 26 25 26 26 26 26 27 26 27 28 28 29 35 37 38 36 34 34 34 34 35 38 39 37 39 41 41 43
28 27 25 25 25 25 24 24 25 24 24 24 24 25 26 26 26 25 25 24 24 24 24 25 26 27 29 34 36 38 34 33 33 33 34 34 35 36 38 39 39 40 40
26 26 25 25 24 24 24 23 23 23 23 23 23 25 24 24 24 24 23 24 23 23 24 26 25 24 26 33 35 35 33 32 32 34 34 34 34 38 40 38 38 39 40
26 25 24 24 23 23 23 22 21 21 21 23 23 24 24 24 22 22 22 24 23 25 25 25 25 27 25 30 34 35 34 30 31 32 34 37 37 40 41 38 37 34 35
24 24 22 21 22 22 22 20 20 20 23 25 25 25 24 23 22 22 22 22 22 22 20 22 23 23 25 27 34 36 34 31 30 31 33 34 38 39 40 41 38 36 40
25 24 22 20 22 22 20 20 19 23 23 23 23 23 21 22 26 23 23 23 20 19 19 20 21 25 26 31 32 35 36 36 32 30 32 33 37 38 39 39 41 41 42
23 24 21 20 21 21 21 20 22 22 21 20 19 19 21 22 23 22 21 20 19 18 18 19 20 23 27 27 32 34 35 36 34 34 35 38 38 38 38 38 39 40 36
21 20 19 17 17 19 22 19 19 21 19 18 18 19 19 20 20 21 21 19 17 17 18 19 21 22 24 26 27 29 30 33 33 34 32 35 37 38 37 37 36 34 34
21 20 18 18 18 17 17 18 21 18 17 18 18 17 19 17 17 19 18 19 20 21 21 23 23 22 21 25 30 31 30 31 32 34 31 30 31 31 31 32 33 34 34
19 18 18 18 17 17 17 18 18 19 16 16 17 16 17 15 17 16 15 22 25 27 29 30 29 27 29 31 31 32 33 34 35 30 26 25 26 27 28 29 29 32 33
MSLP
1023.84 1022.90 1021.91 1020.90 1019.65 1018.16 1016.81 1015.21 1014.56 1014.47 1014.58 1014.61 1014.81 1015.01 1014.22 1015.39 1015.75 1015.97 1016.13 1016.24 1016.75 1017.52 1018.09 1018.44 1018.89 1019.42 1019.96 1020.20 1020.56 1020.66 1020.88 1021.53 1021.95 1022.41 1023.25 1023.14 1023.37 1023.43 1023.27 1023.09 1023.19 1023.34 1023.36
1023.79 1023.25 1022.65 1022.09 1021.05 1020.11 1018.39 1017.15 1015.79 1015.05 1014.90 1014.87 1014.93 1015.32 1015.72 1015.71 1015.97 1016.04 1016.74 1016.79 1016.89 1017.51 1018.09 1018.51 1019.00 1019.29 1019.89 1020.43 1020.67 1020.73 1021.09 1021.32 1021.70 1022.12 1022.84 1023.49 1023.56 1023.50 1023.41 1023.32 1023.11 1023.13 1023.15
1025.21 1024.41 1023.65 1023.31 1022.41 1021.22 1020.30 1018.37 1016.89 1016.40 1015.98 1015.61 1015.26 1015.58 1015.59 1016.04 1016.69 1015.91 1017.32 1017.65 1017.60 1017.74 1018.19 1018.54 1019.00 1019.30 1019.61 1020.35 1020.14 1021.09 1020.76 1021.27 1021.55 1021.52 1021.98 1022.97 1023.17 1023.49 1023.32 1023.20 1023.08 1023.06 1023.09
1025.99 1025.52 1024.91 1024.11 1023.69 1022.69 1021.30 1020.30 1018.86 1018.23 1017.69 1016.86 1016.10 1016.52 1016.44 1016.87 1017.24 1017.89 1018.22 1018.87 1018.60 1018.35 1018.72 1018.85 1019.15 1019.47 1019.83 1020.16 1020.33 1020.18 1020.61 1020.80 1021.40 1021.54 1021.68 1021.83 1022.23 1023.06 1023.58 1023.33 1023.07 1023.01 1022.87
1026.98 1026.35 1025.95 1025.72 1025.14 1024.00 1023.08 1022.21 1021.14 1019.60 1019.17 1018.68 1017.96 1018.01 1017.88 1018.16 1018.65 1018.95 1019.25 1019.47 1019.57 1019.14 1019.68 1019.50 1019.47 1019.75 1020.11 1020.07 1020.17 1020.49 1020.44 1020.84 1021.01 1021.39 1021.56 1021.98 1022.04 1022.38 1022.72 1023.22 1023.07 1023.05 1022.64
1027.65 1027.24 1026.71 1026.18 1025.79 1025.43 1024.44 1023.20 1021.92 1021.46 1020.62 1020.25 1020.59 1019.90 1019.32 1019.98 1019.98 1020.27 1020.39 1020.49 1020.25 1019.95 1020.51 1020.02 1020.11 1019.87 1019.77 1019.90 1020.06 1020.49 1020.62 1020.70 1020.97 1020.96 1021.20 1021.07 1021.64 1021.80 1022.09 1022.57 1022.71 1022.68 1022.18
1028.41 1028.07 1027.62 1027.06 1026.59 1025.93 1025.50 1024.73 1023.64 1022.90 1022.96 1022.62 1021.99 1021.51 1021.86 1021.98 1022.40 1022.22 1021.68 1021.68 1021.75 1021.72 1021.38 1020.44 1020.30 1020.40 1020.47 1020.44 1020.51 1020.25 1020.15 1020.36 1020.64 1020.73 1020.89 1021.16 1020.91 1021.02 1021.28 1021.62 1021.92 1022.10 1022.08
1029.16 1028.92 1028.58 1028.21 1027.54 1027.07 1026.61 1025.68 1025.02 1024.84 1024.11 1023.42 1023.44 1023.53 1023.80 1023.94 1023.87 1023.96 1023.67 1023.53 1023.29 1023.14 1022.76 1021.73 1021.41 1021.07 1020.56 1020.48 1020.26 1020.43 1020.49 1020.50 1020.55 1020.61 1020.67 1020.59 1020.61 1020.79 1020.97 1021.11 1021.42 1021.58 1021.73
1029.58 1029.53 1029.32 1028.93 1028.51 1027.75 1027.21 1026.50 1025.91 1025.67 1025.03 1025.07 1025.23 1025.01 1024.65 1024.45 1025.56 1025.17 1024.94 1024.47 1024.12 1023.50 1023.34 1022.84 1022.27 1022.25 1021.75 1021.00 1020.48 1020.51 1020.53 1020.48 1020.41 1020.20 1020.16 1020.24 1020.27 1020.36 1020.38 1020.38 1020.59 1020.84 1020.58
1029.94 1029.88 1029.67 1029.49 1029.12 1028.92 1028.36 1027.44 1026.95 1026.60 1026.32 1026.11 1026.05 1026.08 1025.97 1026.20 1026.32 1026.21 1025.69 1025.24 1024.72 1024.23 1023.95 1023.25 1023.09 1023.00 1022.67 1022.14 1021.54 1021.05 1020.61 1020.39 1020.11 1020.12 1019.97 1019.99 1019.82 1019.70 1019.80 1019.86 1019.98 1019.99 1019.97
1030.09 1030.37 1030.29 1030.05 1029.79 1029.54 1029.22 1028.83 1028.29 1027.69 1027.05 1026.68 1026.66 1026.26 1026.71 1026.98 1027.49 1026.70 1026.21 1025.62 1025.43 1024.81 1024.61 1024.39 1023.82 1023.40 1023.07 1022.60 1022.05 1021.69 1021.28 1021.00 1020.65 1020.04 1019.76 1019.59 1019.46 1019.32 1019.22 1019.21 1019.25 1019.14 1019.21
1030.11 1030.42 1030.52 1030.41 1030.02 1029.62 1029.23 1028.92 1028.58 1028.28 1028.23 1028.21 1028.07 1027.99 1028.04 1027.62 1027.08 1026.53 1026.17 1026.20 1025.67 1025.41 1025.22 1024.87 1024.18 1023.91 1023.52 1023.23 1022.63 1022.32 1021.98 1021.64 1021.27 1020.94 1020.37 1019.42 1019.11 1018.87 1018.77 1018.58 1018.29 1018.20 1018.08
1030.20 1030.57 1030.67 1030.77 1030.77 1030.52 1030.13 1029.68 1029.26 1029.02 1028.79 1028.71 1028.66 1028.71 1028.29 1027.88 1027.75 1027.69 1027.20 1026.57 1026.20 1025.55 1025.14 1024.66 1024.43 1023.96 1023.72 1023.34 1022.80 1022.42 1022.32 1022.11 1021.75 1021.46 1021.14 1020.38 1019.76 1018.69 1018.28 1017.97 1017.93 1017.51 1017.26
1030.00 1030.46 1030.81 1031.13 1031.27 1031.19 1031.03 1030.82 1030.53 1030.15 1029.81 1029.48 1029.25 1028.92 1028.63 1028.48 1028.38 1027.87 1027.21 1026.86 1026.43 1026.13 1025.63 1025.47 1025.17 1024.71 1024.20 1023.62 1023.17 1022.67 1022.20 1022.03 1021.76 1021.56 1021.26 1020.85 1020.24 1019.83 1019.37 1018.57 1017.65 1017.19 1016.78
1029.93 1030.54 1031.01 1031.26 1031.43 1031.43 1031.30 1031.22 1031.09 1030.81 1030.48 1030.21 1030.01 1029.83 1029.48 1028.99 1028.30 1027.68 1027.36 1027.13 1026.71 1026.44 1025.66 1025.45 1025.20 1024.79 1024.36 1023.60 1023.31 1022.88 1022.54 1022.25 1021.92 1021.62 1021.32 1020.84 1020.50 1020.07 1019.44 1018.80 1018.06 1017.40 1016.41
1030.03 1030.55 1030.93 1031.34 1031.65 1031.80 1031.80 1031.69 1031.47 1031.14 1030.86 1030.68 1030.38 1030.08 1029.69 1029.32 1028.96 1028.48 1027.90 1027.36 1026.83 1026.44 1026.25 1026.28 1025.71 1024.96 1024.51 1023.91 1022.98 1022.35 1022.03 1021.76 1021.47 1020.92 1020.84 1020.40 1019.93 1019.32 1018.88 1018.27 1017.75 1017.55 1016.79
1030.12 1030.63 1031.04 1031.48 1031.78 1031.85 1031.91 1031.83 1031.61 1031.34 1031.07 1030.75 1030.28 1029.92 1029.61 1029.33 1029.11 1028.85 1028.47 1028.13 1027.71 1027.23 1026.77 1026.20 1025.62 1024.90 1024.17 1023.53 1022.97 1022.19 1021.74 1021.59 1021.20 1020.56 1020.25 1019.90 1019.42 1018.81 1018.14 1017.48 1016.99 1016.40 1015.95
1030.27 1030.69 1031.08 1031.40 1031.64 1031.74 1031.70 1031.57 1031.38 1031.22 1031.03 1030.83 1030.56 1030.25 1029.79 1029.30 1028.83 1028.42 1028.12 1027.88 1027.69 1027.40 1026.98 1026.29 1025.60 1024.93 1024.00 1023.23 1022.44 1021.76 1021.51 1021.43 1020.79 1020.07 1019.73 1019.40 1018.64 1017.93 1017.44 1016.82 1016.17 1015.75 1015.36
1030.39 1030.88 1031.22 1031.49 1031.59 1031.50 1031.43 1031.36 1031.24 1031.10 1030.89 1030.57 1030.29 1029.89 1029.55 1029.18 1028.89 1028.55 1028.20 1027.80 1027.39 1026.85 1026.26 1025.68 1025.13 1024.76 1023.97 1022.94 1022.21 1021.73 1021.10 1020.41 1019.69 1019.44 1019.08 1018.61 1017.85 1017.39 1016.78 1016.15 1015.32 1014.64 1014.26
1030.60 1031.04 1031.33 1031.44 1031.47 1031.62 1031.62 1031.58 1031.38 1031.20 1030.87 1030.56 1030.26 1029.96 1029.64 1029.30 1028.95 1028.58 1028.20 1027.84 1027.50 1026.80 1026.11 1025.38 1024.93 1024.32 1023.42 1022.84 1021.91 1021.02 1020.23 1019.70 1019.28 1018.77 1018.36 1017.63 1017.13 1016.46 1015.86 1015.31 1014.83 1013.88 1013.59
1030.76 1031.05 1031.26 1031.53 1031.67 1031.64 1031.64 1031.61 1031.44 1031.22 1030.85 1030.47 1030.08 1029.70 1029.37 1029.10 1028.68 1028.25 1028.00 1027.54 1027.06 1026.54 1025.98 1025.32 1024.69 1023.99 1023.22 1022.27 1021.40 1020.58 1020.00 1019.55 1018.86 1018.08 1017.08 1016.51 1016.23 1015.65 1015.16 1014.77 1014.07 1013.16 1012.88
1031.02 1031.22 1031.44 1031.63 1031.67 1031.57 1031.56 1031.38 1031.22 1030.87 1030.65 1030.32 1029.92 1029.56 1029.27 1028.97 1028.43 1028.03 1027.55 1027.17 1026.80 1026.25 1025.63 1024.88 1024.02 1023.31 1022.69 1022.10 1021.37 1020.64 1019.82 1019.07 1018.31 1017.31 1016.40 1015.68 1015.18 1014.60 1014.02 1013.47 1012.72 1011.99 1011.64
1031.19 1031.35 1031.59 1031.77 1031.80 1031.66 1031.50 1031.24 1030.84 1030.61 1030.29 1030.03 1029.68 1029.34 1029.00 1028.70 1028.35 1027.86 1027.29 1026.85 1026.50 1026.00 1025.24 1024.46 1023.54 1022.71 1022.13 1021.56 1020.84 1019.92 1019.09 1018.22 1017.47 1016.77 1015.90 1015.02 1014.30 1013.57 1012.77 1012.07 1011.52 1010.86 1010.48
1031.48 1031.53 1031.63 1031.63 1031.60 1031.44 1031.22 1031.09 1030.66 1030.33 1030.12 1029.76 1029.37 1029.00 1028.63 1028.18 1027.83 1027.69 1027.21 1026.69 1026.19 1025.56 1024.79 1023.90 1022.92 1022.12 1021.48 1020.85 1020.16 1019.34 1018.48 1017.61 1016.73 1015.83 1014.69 1013.82 1012.98 1012.20 1011.37 1010.70 1010.05 1009.59 1009.16
1031.64 1031.68 1031.70 1031.63 1031.43 1031.27 1031.04 1030.76 1030.46 1030.20 1029.86 1029.43 1029.02 1028.65 1028.27 1027.94 1027.54 1027.16 1026.71 1026.08 1025.37 1024.70 1023.56 1022.89 1022.28 1021.49 1020.64 1020.03 1019.23 1018.42 1017.51 1016.68 1015.81 1014.58 1013.81 1012.82 1012.03 1011.22 1010.57 1009.78 1008.86 1008.03 1007.40
1031.80 1031.75 1031.66 1031.50 1031.29 1031.06 1030.73 1030.35 1030.12 1029.86 1029.52 1029.09 1028.69 1028.39 1027.99 1027.69 1027.18 1026.71 1026.05 1025.49 1024.50 1023.55 1022.63 1022.08 1021.61 1020.82 1020.09 1019.21 1018.45 1017.61 1016.77 1015.78 1014.76 1014.02 1013.44 1012.54 1011.68 1010.74 1009.81 1008.89 1007.89 1006.84 1005.96
Wind_Speed
16 16 19 21 22 22 21 13 5 3 4 2 2 4 3 5 4 3 3 7 8 6 5 4 5 4 2 3 4 2 4 2 2 4 2 2 3 3 3 3 3 4 6
20 21 21 20 20 20 21 17 11 6 5 3 3 4 4 3 3 6 4 4 5 6 5 5 4 4 3 3 3 2 2 2 5 3 3 2 1 2 4 3 4 6 5
17 19 21 20 18 21 20 19 18 17 14 6 6 5 6 3 4 5 4 4 3 4 4 5 4 4 4 3 1 5 4 3 3 3 4 2 3 1 2 6 4 6 4
17 15 18 20 18 18 20 20 18 18 16 17 9 11 9 8 7 6 6 6 6 4 1 3 4 4 2 3 4 3 2 4 3 1 1 1 4 4 2 2 4 4 6
13 15 13 15 17 17 17 17 17 20 20 19 19 8 10 7 6 5 8 8 7 8 4 5 3 1 2 2 3 4 4 3 3 3 2 1 1 2 3 3 3 2 5
11 13 14 13 15 14 15 15 18 20 21 21 18 17 20 14 10 7 5 4 4 5 7 5 4 3 5 4 2 3 5 5 4 3 3 3 4 4 4 3 4 4 4
9 11 14 14 13 17 16 14 17 20 17 17 18 20 18 16 13 11 9 10 8 7 11 8 6 4 4 3 3 3 3 3 2 4 5 4 4 2 3 3 4 4 4
6 8 10 11 13 13 13 14 16 15 16 17 17 15 15 10 10 11 9 7 7 8 12 10 11 12 7 5 4 2 3 4 4 6 5 5 3 4 4 5 5 6 4
6 7 8 8 9 11 13 14 14 14 16 15 12 13 13 15 10 10 8 6 8 8 11 11 12 12 11 11 7 3 4 3 4 5 5 5 6 4 5 6 6 9 11
5 6 7 8 10 9 10 13 12 13 13 13 12 11 12 10 10 9 10 10 9 10 9 11 10 10 10 10 9 8 7 5 4 4 5 6 6 6 5 6 7 8 10
5 5 5 6 6 6 8 8 9 11 12 12 11 13 12 10 7 7 8 9 8 10 10 10 9 9 9 10 9 10 8 9 10 6 6 9 9 7 7 6 8 9 9
5 5 5 6 7 8 10 10 10 10 9 7 9 10 9 8 10 11 11 10 9 9 9 8 8 8 9 9 9 9 8 9 10 10 12 10 6 10 9 8 11 10 11
6 5 5 6 6 7 8 10 10 10 10 8 8 7 8 9 10 8 9 9 9 10 10 10 10 10 10 10 9 8 9 9 9 10 10 10 12 10 7 7 9 9 8
5 4 5 5 5 5 5 6 7 7 7 7 8 11 11 10 9 8 9 9 10 9 9 9 9 8 9 9 8 9 9 8 8 9 9 10 11 11 10 10 10 9 9
5 4 3 3 4 5 5 5 5 6 6 6 5 6 7 8 10 12 11 10 10 10 10 10 9 9 8 6 10 9 8 8 9 9 9 9 12 20 17 10 10 12 9
5 4 3 2 3 3 4 5 5 5 4 5 4 5 5 5 6 7 9 10 11 11 10 10 10 10 8 16 19 16 10 10 10 9 10 9 15 14 20 21 21 18 13
5 4 3 1 2 2 3 3 3 3 4 5 6 6 5 5 4 5 5 5 8 10 11 11 10 11 10 19 20 20 9 9 9 10 11 10 9 15 11 16 22 20 23
5 4 2 1 1 2 1 2 3 3 3 3 3 4 6 7 7 8 8 6 6 6 7 9 10 11 10 21 21 21 10 9 10 9 10 11 12 11 15 14 16 15 13
4 3 2 2 2 4 5 5 5 5 5 5 5 7 7 8 8 9 9 8 9 10 10 9 9 9 11 23 22 19 10 10 9 10 10 10 12 18 23 16 16 16 16
3 2 1 1 5 5 5 5 6 6 6 6 6 6 6 6 8 9 8 7 7 10 9 12 10 15 13 19 21 18 10 11 10 11 12 19 18 24 25 17 15 16 13
2 3 3 2 3 4 4 5 5 6 5 7 7 7 6 8 8 6 6 7 8 9 9 10 9 9 11 12 22 22 12 10 11 12 12 10 23 26 27 27 17 18 20
3 3 2 3 4 4 4 5 5 6 6 7 8 8 7 7 9 10 9 8 8 9 9 10 9 7 8 15 17 23 23 21 12 12 12 14 27 29 31 27 29 32 27
2 3 3 4 4 5 4 5 7 7 6 7 8 8 8 8 9 9 9 8 7 7 9 9 9 9 8 9 20 23 24 24 16 12 20 33 32 33 27 29 30 30 13
3 1 4 5 5 5 5 6 8 7 7 9 8 7 7 10 5 6 7 7 7 7 8 9 9 9 10 9 9 10 11 18 15 19 16 21 28 30 25 22 18 13 13
3 3 5 5 6 6 6 7 9 7 8 8 8 8 7 7 8 8 7 8 9 10 10 9 9 11 11 10 22 20 13 13 16 23 12 12 12 12 12 12 14 13 13
3 4 4 6 7 7 7 8 6 6 8 9 7 6 7 7 7 7 8 16 19 21 22 22 19 12 22 27 28 27 28 29 28 12 10 11 11 12 13 12 13 13 16
Wind_Direction
345 355 2 1 357 5 3 349 68 109 133 135 130 113 167 163 130 90 133 147 143 139 144 138 137 140 165 171 190 146 168 114 108 103 57 47 5 297 252 217 216 215 209
1 2 6 8 6 3 4 358 1 62 64 56 76 106 104 82 77 87 45 42 113 132 144 142 150 159 155 164 194 201 150 119 170 135 120 169 346 277 252 256 225 215 212
1 358 3 6 5 12 -0 0 15 27 22 34 84 87 78 44 84 69 53 34 51 118 143 137 148 169 162 178 125 217 163 181 188 228 144 149 200 111 242 240 230 222 208
6 9 0 7 0 9 6 5 17 27 23 19 52 63 70 69 52 32 52 8 4 57 96 120 116 125 131 182 204 164 216 149 194 289 207 108 136 173 268 279 254 232 225
11 6 13 12 6 6 8 6 14 35 28 31 34 35 63 66 60 50 44 30 12 26 5 14 22 299 185 186 223 173 205 231 155 201 180 192 116 114 143 230 278 324 244
11 14 14 19 18 19 11 9 25 31 32 33 30 37 47 40 38 31 41 24 34 42 5 16 353 327 329 324 250 225 205 203 203 201 226 176 186 197 163 192 229 214 254
12 19 15 13 18 20 14 14 27 35 32 37 38 37 37 40 37 26 28 26 12 8 358 4 18 3 335 298 265 305 296 268 239 236 241 225 239 136 202 210 232 225 246
12 17 24 20 13 18 16 26 29 30 31 37 36 44 42 39 38 28 28 27 18 6 357 8 12 359 352 350 344 299 271 235 232 246 238 249 230 200 196 221 220 253 244
18 16 17 22 19 17 14 17 24 29 34 37 37 34 39 41 24 28 26 24 17 14 6 10 12 0 356 357 340 320 298 290 262 242 237 241 254 227 227 230 220 242 262
44 22 15 19 23 19 9 14 21 29 27 33 36 35 38 33 26 16 19 18 15 13 12 15 7 357 355 357 360 350 335 294 278 265 261 259 255 246 231 229 236 235 248
84 51 21 10 12 28 33 34 29 23 22 22 21 29 22 24 15 23 21 18 9 10 9 2 1 3 360 354 356 349 342 337 335 295 256 265 260 251 248 238 237 240 238
107 70 42 22 15 13 16 19 20 26 25 26 29 22 11 13 14 12 10 0 7 4 360 356 359 354 353 348 349 342 350 346 335 323 335 307 264 264 255 250 251 239 242
120 96 53 32 22 14 9 9 10 8 8 10 20 21 23 17 9 2 357 359 356 356 356 356 353 349 344 341 335 350 338 332 330 330 323 320 324 308 268 255 254 252 250
118 96 63 42 28 22 21 13 5 2 359 4 11 6 1 360 357 354 358 356 354 347 351 344 339 337 334 325 332 329 323 316 316 312 312 312 310 306 323 317 280 255 256
124 108 89 42 17 7 9 7 2 353 350 355 10 356 345 343 344 346 348 346 347 342 343 336 333 331 325 331 328 318 312 307 302 297 295 294 295 298 296 292 289 302 270
147 142 112 58 11 353 342 337 334 337 341 344 340 328 328 326 329 329 331 336 337 338 335 326 322 323 318 318 323 326 318 312 304 303 297 291 296 297 300 301 300 289 287
160 166 166 247 289 259 243 294 311 320 336 330 332 329 325 316 300 300 297 306 318 319 321 319 320 315 314 318 321 318 312 307 301 298 297 292 289 293 279 287 293 294 292
159 162 169 227 262 234 316 326 340 337 325 309 306 311 326 328 329 331 331 316 308 292 287 298 307 309 306 316 317 317 315 293 285 287 286 285 292 295 297 290 288 283 282
148 146 165 213 312 355 351 351 344 343 340 336 333 334 328 324 327 324 321 318 318 317 313 311 307 294 298 311 317 316 304 294 295 292 284 281 287 292 295 289 288 288 284
115 135 133 41 20 347 341 339 332 333 326 321 313 310 304 314 315 305 307 307 300 303 310 308 303 305 308 305 309 315 310 307 304 295 287 290 290 294 298 293 290 286 286
102 93 54 26 321 321 328 312 313 303 292 311 304 312 310 313 293 292 298 296 305 307 298 295 294 288 291 305 311 313 311 302 296 294 299 292 294 295 294 290 285 279 286
34 12 0 320 306 312 313 298 299 296 305 301 304 304 300 301 312 306 303 303 303 302 301 300 297 299 293 299 308 307 305 304 303 298 293 290 292 293 292 290 284 283 283
337 321 317 310 306 310 301 300 303 307 303 304 298 292 295 296 300 296 305 303 302 295 300 299 299 300 312 302 303 306 307 306 302 292 290 296 295 292 292 285 282 284 275
309 303 322 312 301 299 305 283 298 306 300 297 294 291 297 299 302 297 293 289 291 291 287 290 289 304 308 302 301 294 293 297 299 294 286 286 291 292 283 285 279 267 263
323 324 306 298 297 302 294 289 301 297 292 292 292 293 294 293 291 285 282 287 283 280 283 286 305 309 304 299 304 309 307 303 301 310 303 296 299 297 292 286 279 271 262
314 305 293 298 294 290 288 292 285 285 288 291 294 293 299 291 284 292 292 289 295 300 294 304 310 305 304 309 309 311 310 309 316 319 308 303 299 296 299 293 295 275 262